This is the latest recevied weather packets stored in our database for station/object IW2GOB-3. If no packets are shown the sender has not sent any weather packets the latest 1 day(s).
| Time | Temp. | Humidity | Pressure | Rain* | Wind** | Luminosity | Snow |
|---|---|---|---|---|---|---|---|
| 1778069125 | 18.33° C | 83% | 1007.2 hPa | 0 mm | - | - | - |
| 1778068525 | 17.78° C | 86% | 1007.1 hPa | 0 mm | - | - | - |
| 1778067925 | 17.78° C | 86% | 1007.2 hPa | 0 mm | - | - | - |
| 1778067325 | 17.78° C | 88% | 1007.3 hPa | 0 mm | - | - | - |
| 1778066725 | 17.22° C | 89% | 1007.4 hPa | 0 mm | - | - | - |
| 1778066125 | 17.22° C | 89% | 1007.5 hPa | 0 mm | - | - | - |
| 1778065525 | 17.22° C | 90% | 1007.5 hPa | 0 mm | - | - | - |
| 1778064925 | 17.22° C | 91% | 1007.5 hPa | 0 mm | - | - | - |
| 1778063725 | 16.67° C | 93% | 1007.5 hPa | 0 mm | - | - | - |
| 1778061325 | 15.56° C | 95% | 1007.6 hPa | 0 mm | - | - | - |
| 1778059525 | 15° C | 95% | 1007.6 hPa | 3.05 mm | - | - | - |
| 1778055925 | 13.89° C | 95% | 1008.3 hPa | 2.03 mm | - | - | - |
| 1778049324 | 13.89° C | 95% | 1008.2 hPa | 0.25 mm | - | - | - |
| 1778046924 | 13.89° C | 95% | 1008.4 hPa | 0 mm | - | - | - |
| 1778043924 | 13.33° C | 95% | 1008.5 hPa | 1.78 mm | - | - | - |
| 1778043324 | 13.33° C | 95% | 1008.6 hPa | 3.05 mm | - | - | - |
| 1778042124 | 13.89° C | 94% | 1008.4 hPa | 4.32 mm | - | - | - |
| 1778041524 | 13.89° C | 94% | 1009.1 hPa | 4.57 mm | - | - | - |
| 1778040924 | 13.89° C | 94% | 1009 hPa | 4.57 mm | - | - | - |
| 1778040324 | 13.89° C | 94% | 1008.5 hPa | 3.56 mm | - | - | - |
| 1778039724 | 13.89° C | 94% | 1009 hPa | 2.54 mm | - | - | - |
| 1778039124 | 13.89° C | 94% | 1009.3 hPa | 1.78 mm | - | - | - |
| 1778038524 | 13.89° C | 94% | 1009.2 hPa | 1.52 mm | - | - | - |
| 1778037924 | 13.89° C | 94% | 1009.3 hPa | 1.27 mm | - | - | - |
| 1778037324 | 13.89° C | 94% | 1009.3 hPa | 1.27 mm | - | - | - |
* Rain latest hour (hover to see other rain measurements)
** Current wind speed in m/s (hover to see current wind gust speed)